This is the latest recevied weather packets stored in our database for station/object IR3AS. If no packets are shown the sender has not sent any weather packets the latest 10 day(s).
| Time | Temp. | Humidity | Pressure | Rain* | Wind** | Luminosity | Snow |
|---|---|---|---|---|---|---|---|
| 1777136781 | 12.78° C | 48% | 859 hPa | 0 mm | - | - | - |
| 1777136480 | 13.89° C | 48% | 859 hPa | 0 mm | - | - | - |
| 1777136180 | 14.44° C | 46% | 859.3 hPa | 0 mm | - | - | - |
| 1777135880 | 15.56° C | 45% | 859.1 hPa | 0 mm | - | - | - |
| 1777135580 | 16.67° C | 44% | 859.2 hPa | 0 mm | - | - | - |
| 1777135280 | 16.67° C | 45% | 859.2 hPa | 0 mm | - | - | - |
| 1777134980 | 16.67° C | 44% | 859.2 hPa | 0 mm | - | - | - |
| 1777134680 | 17.22° C | 43% | 859 hPa | 0 mm | - | - | - |
| 1777134380 | 17.78° C | 44% | 859.1 hPa | 0 mm | - | - | - |
| 1777134159 | 17.78° C | 43% | 859.2 hPa | 0 mm | - | - | - |
| 1777134081 | 17.78° C | 43% | 859.2 hPa | 0 mm | - | - | - |
| 1777133780 | 17.78° C | 43% | 859.1 hPa | 0 mm | - | - | - |
| 1777133480 | 18.33° C | 44% | 859.3 hPa | 0 mm | - | - | - |
| 1777133180 | 17.78° C | 44% | 859.3 hPa | 0 mm | - | - | - |
| 1777132881 | 18.33° C | 44% | 859.2 hPa | 0 mm | - | - | - |
| 1777132581 | 17.78° C | 45% | 859.5 hPa | 0 mm | - | - | - |
| 1777132281 | 17.78° C | 46% | 859.6 hPa | 0 mm | - | - | - |
| 1777131980 | 17.22° C | 48% | 859.6 hPa | 0 mm | - | - | - |
| 1777131680 | 16.11° C | 50% | 859.6 hPa | 0 mm | - | - | - |
| 1777131380 | 15° C | 51% | 859.4 hPa | 0 mm | - | - | - |
| 1777131080 | 13.89° C | 53% | 859.6 hPa | 0 mm | - | - | - |
| 1777130842 | 13.33° C | 52% | 859.5 hPa | 0 mm | - | - | - |
| 1777130780 | 13.33° C | 52% | 859.5 hPa | 0 mm | - | - | - |
| 1777130480 | 13.33° C | 52% | 859.7 hPa | 0 mm | - | - | - |
| 1777130180 | 13.33° C | 50% | 859.7 hPa | 0 mm | - | - | - |
* Rain latest hour (hover to see other rain measurements)
** Current wind speed in m/s (hover to see current wind gust speed)